Location: Hains Lake
(37.8540°N, 99.8578°W)
Time: 03:16:41
(UTC+00:00)

Transit 2A - Pass Details

Date: 27 April 2021
Orbit: 602 x 957 km, 66.7° (Epoch: 13 May)

Event Time Altitude Azimuth Distance (km) Brightness Sun altitude
Rises 12:11:43 0° 222° (SW) 3,089 8.6 3.7°
Reaches altitude 10° 12:14:13 10° 229° (SW) 2,120 7.8 4.1°
Maximum altitude 12:18:46 44° 302° (WNW) 893 6.2 5.0°
Drops below altitude 10° 12:23:02 10° 15° (NNE) 1,988 8.6 5.8°
Sets 12:25:19 0° 22° (NNE) 2,875 9.5 6.3°
